Location: La Chapelle
(48.3135°N, 1.3085°W)
Time: 21:20:15
(UTC+00:00)

Cosmos 1461 - Pass Details

Date: 03 March 2021
Orbit: 505 x 659 km, 65.0° (Epoch: 14 April)

Event Time Altitude Azimuth Distance (km) Brightness Sun altitude
Rises 19:07:10 0° 238° (WSW) 2,970 7.5 -13.2°
Reaches altitude 10° 19:09:35 10° 245° (WSW) 2,070 6.7 -13.6°
Maximum altitude 19:14:03 42° 317° (NW) 949 4.4 -14.3°
Drops below altitude 10° 19:18:33 10° 28° (NNE) 2,073 5.5 -15.1°
Enters shadow 19:20:29 - 35° (NE) 2,790 6.1 -15.4°
